Weather History for Whiting Fld NAS, FL

Change the Weather History Date:

Friday, May 16, 2014

  Actual Average Record
Temperature  
Mean Temperature 62 °F -  
Max Temperature 78 °F 83 °F 91 °F (1998)
Min Temperature 48 °F 62 °F 48 °F (2014)
Degree Days  
Heating Degree Days 2    
Growing Degree Days 12 (Base 50)    
Moisture  
Dew Point 50 °F    
Average Humidity 65    
Maximum Humidity 90    
Minimum Humidity 38    
Precipitation  
Precipitation 0.00 in - - ()
Sea Level Pressure  
Sea Level Pressure 30.11 in    
Wind  
Wind Speed 5 mph (WNW)    
Max Wind Speed 16 mph    
Max Gust Speed 25 mph    
Visibility 10 miles    
Events      
Averages and records for this station are not official NWS values.
T = Trace of Precipitation, MM = Missing Value Source: NWS Daily Summary

Daily Weather History Graph

Daily Weather History Graph

Search for Another Location

Airport:

Trip Planner

Search our weather history database for the weather conditions in past years. The results will help you decide how hot, cold, wet, or windy it might be!

Date:

Astronomy

May. 16, 2014 Rise Set
Actual Time 5:52 AM CDT 7:36 PM CDT
Civil Twilight 5:26 AM CDT 8:03 PM CDT
Nautical Twilight 4:54 AM CDT 8:35 PM CDT
Astronomical Twilight 4:20 AM CDT 9:08 PM CDT
Moon 9:43 PM CDT (5/16) 7:34 AM CDT (5/16)
Length of Visible Light 14h 36m
Length of Day
13h 44m
Waning Gibbous, 95% of the Moon is Illuminated
May 16
Waning Gibbous
May 21
Last Quarter
May 28
New
Jun 5
First Quarter
Jun 12
Full

Hourly Weather History & Observations

Time (CDT) Temp. Dew Point Humidity Pressure Visibility Wind Dir Wind Speed Gust Speed Precip Events Conditions
12:56 AM 48.0 °F 45.0 °F 89% 30.12 in 10.0 mi Calm Calm - N/A   Clear
1:56 AM 48.9 °F 46.0 °F 90% 30.11 in 10.0 mi WNW 3.5 mph - N/A   Clear
2:56 AM 48.0 °F 45.0 °F 89% 30.11 in 10.0 mi WNW 4.6 mph - N/A   Clear
3:56 AM 48.0 °F 45.0 °F 89% 30.11 in 10.0 mi West 3.5 mph - N/A   Clear
4:56 AM 48.0 °F 45.0 °F 89% 30.11 in 10.0 mi West 3.5 mph - N/A   Clear
5:56 AM 48.0 °F 45.0 °F 89% 30.11 in 10.0 mi WNW 3.5 mph - N/A   Clear
6:56 AM 53.1 °F 48.0 °F 83% 30.14 in 10.0 mi WNW 5.8 mph - N/A   Clear
7:56 AM 59.0 °F 51.1 °F 75% 30.15 in 10.0 mi WNW 3.5 mph - N/A   Clear
8:56 AM 64.0 °F 48.9 °F 58% 30.15 in 8.0 mi WNW 9.2 mph - N/A   Clear
9:56 AM 69.1 °F 46.9 °F 45% 30.15 in 10.0 mi WNW 10.4 mph - N/A   Clear
10:56 AM 72.0 °F 48.0 °F 43% 30.15 in 10.0 mi NW 16.1 mph 21.9 mph N/A   Partly Cloudy
11:56 AM 73.0 °F 48.9 °F 42% 30.13 in 10.0 mi NNW 10.4 mph 19.6 mph N/A   Partly Cloudy
12:56 PM 73.9 °F 48.9 °F 41% 30.12 in 10.0 mi NW 11.5 mph - N/A   Scattered Clouds
1:56 PM 75.0 °F 50.0 °F 41% 30.09 in 10.0 mi NNW 6.9 mph - N/A   Scattered Clouds
2:56 PM 77.0 °F 51.1 °F 40% 30.08 in 10.0 mi WNW 9.2 mph - N/A   Scattered Clouds
3:56 PM 77.0 °F 50.0 °F 39% 30.06 in 10.0 mi NW 13.8 mph 25.3 mph N/A   Scattered Clouds
4:56 PM 75.9 °F 48.9 °F 38% 30.05 in 10.0 mi West 12.7 mph - N/A   Mostly Cloudy
5:56 PM 75.0 °F 51.1 °F 43% 30.05 in 10.0 mi West 9.2 mph - N/A   Scattered Clouds
6:56 PM 71.1 °F 53.1 °F 53% 30.06 in 10.0 mi West 8.1 mph - N/A   Scattered Clouds
7:56 PM 66.9 °F 54.0 °F 63% 30.07 in 10.0 mi WSW 4.6 mph - N/A   Scattered Clouds
8:56 PM 66.0 °F 55.0 °F 68% 30.09 in 10.0 mi WSW 3.5 mph - N/A   Scattered Clouds
9:56 PM 64.9 °F 55.0 °F 70% 30.11 in 10.0 mi WSW 5.8 mph - N/A   Scattered Clouds
10:45 PM 62.1 °F 54.0 °F 75% 30.16 in 10.0 mi Calm Calm - N/A   Clear
10:56 PM 60.1 °F 54.0 °F 80% 30.12 in 10.0 mi Calm Calm - N/A   Clear
11:56 PM 57.9 °F 54.0 °F 87% 30.12 in 10.0 mi Calm Calm - N/A   Clear